| time (UTC) | temp C | wind direction | speed KPH | gust KPH | rain 1hr cm | rain 24hr cm | rain mn cm | humidity % | barometer mb |
| 20260906114528 | 20 | 108 | 6.4 | 12.9 | 0.00 | 0.00 | 0.00 | 98 | 1015.9 |
| 20260906113028 | 20 | 115 | 8.0 | 14.5 | 0.00 | 0.00 | 0.00 | 98 | 1015.7 |
| 20260906111521 | 20 | 110 | 6.4 | 12.9 | 0.00 | 0.00 | 0.00 | 98 | 1015.7 |
| 20260906110020 | 20 | 115 | 8.0 | 12.9 | 0.00 | 0.00 | 0.00 | 98 | 1015.8 |
| 20260906104521 | 20 | 134 | 6.4 | 14.5 | 0.00 | 0.00 | 0.00 | 98 | 1015.8 |
| 20260906103019 | 20 | 109 | 9.7 | 12.9 | 0.00 | 0.00 | 0.00 | 98 | 1015.8 |
| 20260906101521 | 20 | 116 | 8.0 | 14.5 | 0.00 | 0.00 | 0.00 | 99 | 1015.8 |
| 20260906100021 | 18 | 154 | 0.0 | 0.0 | 0.00 | 0.00 | 0.00 | 97 | 1015.9 |
| 20260906094516 | 18 | 154 | 0.0 | 0.0 | 0.00 | 0.00 | 0.00 | 96 | 1015.8 |
| 20260906093037 | 19 | 154 | 0.0 | 0.0 | 0.00 | 0.00 | 0.00 | 97 | 1015.4 |
| 20260906091511 | 20 | 154 | 0.0 | 1.6 | 0.00 | 0.00 | 0.00 | 96 | 1015.5 |
| 20260906090013 | 20 | 123 | 1.6 | 6.4 | 0.00 | 0.00 | 0.00 | 96 | 1014.8 |
| 20260906084511 | 20 | 108 | 3.2 | 6.4 | 0.00 | 0.00 | 0.00 | 96 | 1014.8 |
| 20260906083011 | 20 | 119 | 3.2 | 9.7 | 0.00 | 0.00 | 0.00 | 96 | 1014.9 |
| 20260906081505 | 20 | 107 | 1.6 | 11.3 | 0.00 | 0.00 | 0.00 | 96 | 1014.8 |
| 20260906080004 | 20 | 117 | 4.8 | 12.9 | 0.00 | 0.00 | 0.00 | 96 | 1014.7 |
| 20260906074504 | 20 | 88 | 8.0 | 16.1 | 0.00 | 0.00 | 0.00 | 96 | 1014.6 |
| 20260906073100 | 21 | 115 | 3.2 | 11.3 | 0.00 | 0.00 | 0.00 | 96 | 1014.7 |
| 20260906071559 | 21 | 121 | 3.2 | 12.9 | 0.00 | 0.00 | 0.00 | 96 | 1015.0 |
| 20260906070057 | 21 | 113 | 4.8 | 11.3 | 0.00 | 0.00 | 0.00 | 96 | 1015.0 |
| 20260906064556 | 21 | 86 | 1.6 | 4.8 | 0.00 | 0.00 | 0.00 | 96 | 1015.2 |
| 20260906063056 | 21 | 46 | 0.0 | 3.2 | 0.00 | 0.00 | 0.00 | 96 | 1015.3 |
| 20260906061602 | 21 | 55 | 1.6 | 6.4 | 0.00 | 0.00 | 0.00 | 96 | 1015.4 |
| 20260906060051 | 21 | 109 | 1.6 | 4.8 | 0.00 | 0.00 | 0.00 | 96 | 1015.1 |
| 20260906054555 | 21 | 78 | 0.0 | 3.2 | 0.00 | 0.00 | 0.00 | 96 | 1015.1 |
| 20260906053103 | 22 | 74 | 0.0 | 1.6 | 0.00 | 0.00 | 0.00 | 95 | 1015.2 |
| 20260906051543 | 22 | 127 | 1.6 | 4.8 | 0.00 | 0.00 | 0.00 | 95 | 1014.8 |
| 20260906050040 | 22 | 121 | 3.2 | 6.4 | 0.00 | 0.00 | 0.00 | 95 | 1014.7 |
| 20260906044539 | 22 | 125 | 3.2 | 11.3 | 0.00 | 0.00 | 0.00 | 95 | 1014.7 |
| 20260906043038 | 22 | 111 | 6.4 | 11.3 | 0.00 | 0.00 | 0.00 | 95 | 1014.7 |
| 20260906041547 | 22 | 88 | 3.2 | 6.4 | 0.00 | 0.00 | 0.00 | 95 | 1014.8 |
| 20260906040037 | 22 | 105 | 0.0 | 4.8 | 0.00 | 0.00 | 0.00 | 95 | 1014.8 |
| 20260906034542 | 22 | 109 | 1.6 | 6.4 | 0.00 | 0.00 | 0.00 | 94 | 1014.6 |
| 20260906033036 | 22 | 54 | 1.6 | 6.4 | 0.00 | 0.00 | 0.00 | 95 | 1014.6 |
| 20260906031539 | 22 | 44 | 0.0 | 3.2 | 0.00 | 0.00 | 0.00 | 94 | 1014.6 |
| 20260906030039 | 22 | 37 | 3.2 | 4.8 | 0.00 | 0.00 | 0.00 | 95 | 1014.4 |
| 20260906024533 | 22 | 56 | 1.6 | 4.8 | 0.00 | 0.00 | 0.00 | 95 | 1014.4 |
| 20260906023032 | 22 | 69 | 0.0 | 3.2 | 0.00 | 0.00 | 0.00 | 94 | 1014.1 |
| 20260906021530 | 22 | 70 | 0.0 | 4.8 | 0.00 | 0.00 | 0.00 | 94 | 1014.0 |
| 20260906020029 | 23 | 71 | 1.6 | 4.8 | 0.00 | 0.00 | 0.00 | 93 | 1013.7 |
| 20260906014541 | 23 | 73 | 0.0 | 3.2 | 0.00 | 0.00 | 0.00 | 93 | 1013.3 |
| 20260906013028 | 23 | 75 | 0.0 | 4.8 | 0.00 | 0.00 | 0.00 | 93 | 1013.4 |
| 20260906011527 | 24 | 57 | 3.2 | 9.7 | 0.00 | 0.00 | 0.00 | 92 | 1013.3 |
| 20260906010053 | 24 | 74 | 4.8 | 9.7 | 0.00 | 0.00 | 0.00 | 92 | 1013.0 |
| 20260906004526 | 25 | 96 | 3.2 | 8.0 | 0.00 | 0.00 | 0.00 | 90 | 1013.0 |
| 20260906003025 | 25 | 104 | 3.2 | 8.0 | 0.00 | 0.00 | 0.00 | 90 | 1012.8 |
| 20260906001536 | 26 | 78 | 3.2 | 11.3 | 0.00 | 0.00 | 0.00 | 89 | 1012.8 |
| 20260906000024 | 26 | 62 | 4.8 | 12.9 | 0.00 | 0.00 | 0.00 | 88 | 1012.8 |
| 20260905234523 | 27 | 48 | 4.8 | 9.7 | 0.00 | 0.00 | 0.00 | 87 | 1012.7 |
| 20260905233022 | 27 | 76 | 3.2 | 9.7 | 0.00 | 0.00 | 0.00 | 87 | 1012.4 |
| 20260905231535 | 27 | 96 | 4.8 | 11.3 | 0.00 | 0.00 | 0.00 | 85 | 1012.6 |
| 20260905230021 | 28 | 46 | 4.8 | 12.9 | 0.00 | 0.00 | 0.00 | 83 | 1012.5 |
| 20260905224524 | 28 | 52 | 4.8 | 14.5 | 0.00 | 0.00 | 0.00 | 83 | 1012.5 |
| 20260905223030 | 28 | 75 | 6.4 | 12.9 | 0.00 | 0.00 | 0.00 | 82 | 1012.4 |
| 20260905221519 | 28 | 92 | 9.7 | 19.3 | 0.00 | 0.00 | 0.00 | 82 | 1012.1 |
| 20260905220025 | 29 | 101 | 8.0 | 20.9 | 0.00 | 0.00 | 0.00 | 81 | 1011.8 |
| 20260905214519 | 29 | 112 | 12.9 | 24.1 | 0.00 | 0.00 | 0.00 | 80 | 1011.5 |
| 20260905213020 | 30 | 80 | 9.7 | 17.7 | 0.00 | 0.00 | 0.00 | 81 | 1011.4 |
| 20260905211534 | 30 | 87 | 11.3 | 22.5 | 0.00 | 0.00 | 0.00 | 80 | 1011.6 |
| 20260905210016 | 30 | 97 | 9.7 | 19.3 | 0.00 | 0.00 | 0.00 | 80 | 1011.5 |
| 20260905204524 | 30 | 61 | 8.0 | 17.7 | 0.00 | 0.00 | 0.00 | 80 | 1012.0 |
| 20260905203033 | 30 | 94 | 4.8 | 17.7 | 0.00 | 0.00 | 0.00 | 82 | 1012.3 |
| 20260905201523 | 30 | 80 | 4.8 | 16.1 | 0.00 | 0.00 | 0.00 | 81 | 1012.6 |
| 20260905200014 | 29 | 79 | 11.3 | 20.9 | 0.00 | 0.00 | 0.00 | 82 | 1012.8 |
| 20260905194513 | 30 | 81 | 8.0 | 17.7 | 0.00 | 0.00 | 0.00 | 80 | 1013.0 |
| 20260905193020 | 30 | 36 | 8.0 | 20.9 | 0.00 | 0.00 | 0.00 | 82 | 1012.9 |
| 20260905191523 | 30 | 29 | 11.3 | 19.3 | 0.00 | 0.00 | 0.00 | 80 | 1013.4 |
| 20260905190012 | 30 | 28 | 9.7 | 20.9 | 0.00 | 0.00 | 0.00 | 82 | 1013.4 |
| 20260905184512 | 30 | 48 | 9.7 | 16.1 | 0.00 | 0.00 | 0.00 | 79 | 1013.5 |
| 20260905183010 | 30 | 5 | 4.8 | 17.7 | 0.00 | 0.00 | 0.00 | 80 | 1013.5 |
| 20260905181508 | 30 | 51 | 12.9 | 17.7 | 0.00 | 0.00 | 0.00 | 79 | 1013.6 |
| 20260905180006 | 30 | 19 | 6.4 | 14.5 | 0.00 | 0.00 | 0.00 | 81 | 1013.9 |
| 20260905174505 | 29 | 34 | 1.6 | 9.7 | 0.00 | 0.00 | 0.00 | 81 | 1014.1 |
| 20260905173001 | 29 | 89 | 1.6 | 9.7 | 0.00 | 0.00 | 0.00 | 83 | 1013.9 |
| 20260905171602 | 28 | 72 | 4.8 | 14.5 | 0.00 | 0.00 | 0.00 | 83 | 1013.9 |
| 20260905170107 | 28 | 70 | 4.8 | 12.9 | 0.00 | 0.00 | 0.00 | 83 | 1013.7 |
| 20260905164604 | 28 | 22 | 4.8 | 16.1 | 0.00 | 0.00 | 0.00 | 83 | 1013.8 |
| 20260905163055 | 28 | 76 | 6.4 | 14.5 | 0.00 | 0.00 | 0.00 | 84 | 1014.0 |
| 20260905161554 | 28 | 84 | 4.8 | 17.7 | 0.00 | 0.00 | 0.00 | 84 | 1013.9 |
| 20260905160053 | 28 | 52 | 8.0 | 14.5 | 0.00 | 0.00 | 0.00 | 83 | 1013.9 |
| 20260905154551 | 28 | 32 | 3.2 | 9.7 | 0.00 | 0.00 | 0.00 | 83 | 1013.8 |
| 20260905153048 | 27 | 55 | 4.8 | 11.3 | 0.00 | 0.00 | 0.00 | 84 | 1013.7 |
| 20260905151549 | 27 | 61 | 4.8 | 16.1 | 0.00 | 0.00 | 0.00 | 87 | 1013.5 |
| 20260905150048 | 26 | 36 | 4.8 | 14.5 | 0.00 | 0.00 | 0.00 | 88 | 1013.3 |
| 20260905144540 | 26 | 32 | 4.8 | 9.7 | 0.00 | 0.00 | 0.00 | 90 | 1013.2 |
| 20260905143036 | 25 | 45 | 4.8 | 9.7 | 0.00 | 0.00 | 0.00 | 92 | 1013.0 |
| 20260905141532 | 24 | 59 | 4.8 | 9.7 | 0.00 | 0.00 | 0.00 | 94 | 1012.9 |
| 20260905140029 | 23 | 49 | 3.2 | 6.4 | 0.00 | 0.00 | 0.00 | 97 | 1012.9 |
| 20260905134528 | 23 | 46 | 3.2 | 8.0 | 0.00 | 0.00 | 0.00 | 98 | 1013.2 |
| 20260905133019 | 22 | 44 | 0.0 | 6.4 | 0.00 | 0.00 | 0.00 | 99 | 1012.8 |
| 20260905131517 | 22 | 34 | 3.2 | 4.8 | 0.00 | 0.00 | 0.00 | 99 | 1012.4 |
| 20260905130018 | 21 | 348 | 0.0 | 1.6 | 0.00 | 0.00 | 0.00 | 99 | 1012.3 |
| 20260905124517 | 21 | 360 | 0.0 | 3.2 | 0.00 | 0.00 | 0.00 | 99 | 1012.2 |
| 20260905123014 | 21 | 360 | 0.0 | 3.2 | 0.00 | 0.00 | 0.00 | 99 | 1012.1 |
| 20260905121512 | 21 | 360 | 0.0 | 0.0 | 0.00 | 0.00 | 0.00 | 99 | 1011.8 |
| 20260905120010 | 21 | 360 | 0.0 | 0.0 | 0.00 | 0.00 | 0.00 | 98 | 1011.5 |